When you browse on this site, cookies collect data to enhance your experience and personalize the content and advertising you see.
Visit our Privacy Policy to learn more. By continuing to use the site, you agree to this use of cookies and data.
  • en France
  • Liste des pays
  • À 7 jours
  • Température de l'eau
  • Carte satellitaire
  • Carte météo
  • Widgets météo
  • user-avatar
    Se connecter

    Météo par heure à Kandahâr

    Ce jour, 24 Janvier, Jeudi

    Heure Température Précipitation Vent Pression Humidité
    00:00 +6°C° 0 mm 1 m/s 677 mmHg 30%
    01:00 +6°C° 0 mm 1 m/s 677 mmHg 30%
    02:00 +6°C° 0 mm 1 m/s 677 mmHg 31%
    03:00 +5°C° 0 mm 1 m/s 677 mmHg 31%
    04:00 +5°C° 0 mm 1 m/s 677 mmHg 32%
    05:00 +5°C° 0 mm 1 m/s 677 mmHg 32%
    06:00 +5°C° 0 mm 1 m/s 678 mmHg 32%
    07:00 +4°C° 0 mm 2 m/s 678 mmHg 33%
    08:00 +5°C° 0 mm 2 m/s 678 mmHg 29%
    09:00 +7°C° 0 mm 2 m/s 679 mmHg 26%
    10:00 +9°C° 0 mm 2 m/s 679 mmHg 23%
    11:00 +9°C° 0 mm 2 m/s 679 mmHg 22%
    12:00 +11°C° 0 mm 1 m/s 678 mmHg 21%
    13:00 +11°C° 0 mm 1 m/s 678 mmHg 20%
    14:00 +11°C° 0 mm 1 m/s 678 mmHg 20%
    15:00 +11°C° 0 mm 1 m/s 678 mmHg 20%
    16:00 +12°C° 0 mm 1 m/s 678 mmHg 20%
    17:00 +11°C° 0 mm 1 m/s 678 mmHg 22%
    18:00 +10°C° 0 mm 1 m/s 678 mmHg 25%
    19:00 +9°C° 0 mm 1 m/s 678 mmHg 27%
    20:00 +8°C° 0 mm 1 m/s 678 mmHg 28%
    21:00 +8°C° 0 mm 1 m/s 678 mmHg 30%
    22:00 +6°C° 0 mm 0 m/s 678 mmHg 31%
    23:00 +6°C° 0 mm 0 m/s 678 mmHg 32%

    Demain, 25 Janvier, Vendredi

    Heure Température Précipitation Vent Pression Humidité
    00:00 +5°C° 0 mm 0 m/s 678 mmHg 32%
    01:00 +5°C° 0 mm 0 m/s 677 mmHg 33%
    02:00 +4°C° 0 mm 0 m/s 677 mmHg 34%
    03:00 +4°C° 0 mm 0 m/s 677 mmHg 34%
    04:00 +3°C° 0 mm 0 m/s 677 mmHg 34%
    05:00 +3°C° 0 mm 0 m/s 677 mmHg 34%
    06:00 +3°C° 0 mm 0 m/s 677 mmHg 34%
    07:00 +4°C° 0 mm 1 m/s 677 mmHg 34%
    08:00 +6°C° 0 mm 1 m/s 678 mmHg 30%
    09:00 +7°C° 0 mm 1 m/s 678 mmHg 26%
    10:00 +9°C° 0 mm 1 m/s 679 mmHg 23%
    11:00 +10°C° 0 mm 1 m/s 678 mmHg 22%
    12:00 +11°C° 0 mm 1 m/s 678 mmHg 21%
    13:00 +11°C° 0 mm 1 m/s 677 mmHg 20%
    14:00 +12°C° 0 mm 1 m/s 677 mmHg 19%
    15:00 +12°C° 0 mm 1 m/s 677 mmHg 19%
    16:00 +12°C° 0 mm 1 m/s 677 mmHg 19%
    17:00 +11°C° 0 mm 1 m/s 677 mmHg 22%
    18:00 +10°C° 0 mm 1 m/s 677 mmHg 25%
    19:00 +8°C° 0 mm 0 m/s 677 mmHg 27%
    20:00 +9°C° 0 mm 1 m/s 677 mmHg 28%
    21:00 +8°C° 0 mm 1 m/s 677 mmHg 28%
    22:00 +8°C° 0 mm 1 m/s 677 mmHg 29%
    23:00 +7°C° 0 mm 1 m/s 677 mmHg 29%

    Après-demain, 26 Janvier, Samedi

    Heure Température Précipitation Vent Pression Humidité
    00:00 +7°C° 0 mm 1 m/s 677 mmHg 30%
    01:00 +7°C° 0 mm 1 m/s 677 mmHg 30%
    02:00 +6°C° 0 mm 1 m/s 677 mmHg 30%
    03:00 +5°C° 0 mm 2 m/s 677 mmHg 30%
    04:00 +5°C° 0 mm 2 m/s 677 mmHg 30%
    05:00 +5°C° 0 mm 2 m/s 677 mmHg 30%
    06:00 +5°C° 0 mm 2 m/s 677 mmHg 30%
    07:00 +4°C° 0 mm 3 m/s 678 mmHg 30%
    08:00 +7°C° 0 mm 3 m/s 678 mmHg 27%
    09:00 +8°C° 0 mm 3 m/s 679 mmHg 24%
    10:00 +10°C° 0 mm 3 m/s 679 mmHg 22%
    11:00 +10°C° 0 mm 2 m/s 679 mmHg 20%
    12:00 +12°C° 0 mm 2 m/s 678 mmHg 19%
    13:00 +13°C° 0 mm 1 m/s 678 mmHg 18%
    14:00 +13°C° 0 mm 2 m/s 678 mmHg 18%
    15:00 +13°C° 0 mm 2 m/s 677 mmHg 19%
    16:00 +13°C° 0 mm 2 m/s 677 mmHg 19%
    17:00 +12°C° 0 mm 2 m/s 677 mmHg 21%
    18:00 +10°C° 0 mm 2 m/s 678 mmHg 23%
    19:00 +10°C° 0 mm 2 m/s 678 mmHg 26%
    20:00 +9°C° 0 mm 2 m/s 678 mmHg 26%
    21:00 +9°C° 0 mm 2 m/s 678 mmHg 27%
    22:00 +8°C° 0 mm 2 m/s 678 mmHg 28%
    23:00 +8°C° 0 mm 2 m/s 678 mmHg 29%

    27 Janvier, Dimanche

    Heure Température Précipitation Vent Pression Humidité
    00:00 +8°C° 0 mm 2 m/s 678 mmHg 29%
    01:00 +7°C° 0 mm 2 m/s 678 mmHg 30%
    02:00 +7°C° 0 mm 2 m/s 678 mmHg 31%
    03:00 +7°C° 0 mm 3 m/s 678 mmHg 32%
    04:00 +5°C° 0 mm 3 m/s 678 mmHg 33%
    05:00 +5°C° 0 mm 3 m/s 678 mmHg 33%
    06:00 +5°C° 0 mm 3 m/s 678 mmHg 34%
    07:00 +6°C° 0 mm 2 m/s 679 mmHg 34%
    08:00 +8°C° 0 mm 2 m/s 679 mmHg 31%
    09:00 +9°C° 0 mm 2 m/s 680 mmHg 27%
    10:00 +12°C° 0 mm 2 m/s 680 mmHg 24%
    11:00 +13°C° 0 mm 2 m/s 680 mmHg 24%
    12:00 +14°C° 0 mm 1 m/s 679 mmHg 23%
    13:00 +15°C° 0 mm 1 m/s 679 mmHg 23%
    14:00 +15°C° 0 mm 1 m/s 679 mmHg 23%
    15:00 +15°C° 0 mm 1 m/s 678 mmHg 22%
    16:00 +16°C° 0 mm 1 m/s 678 mmHg 22%
    17:00 +14°C° 0 mm 1 m/s 678 mmHg 25%
    18:00 +12°C° 0 mm 0 m/s 678 mmHg 29%
    19:00 +10°C° 0 mm 0 m/s 678 mmHg 32%
    20:00 +10°C° 0 mm 0 m/s 678 mmHg 33%
    21:00 +9°C° 0 mm 0 m/s 679 mmHg 34%
    22:00 +9°C° 0 mm 0 m/s 679 mmHg 35%
    23:00 +9°C° 0 mm 0 m/s 678 mmHg 36%

    28 Janvier, Lundi

    Heure Température Précipitation Vent Pression Humidité
    00:00 +8°C° 0 mm 0 m/s 678 mmHg 37%
    01:00 +8°C° 0 mm 0 m/s 678 mmHg 38%
    02:00 +7°C° 0 mm 0 m/s 678 mmHg 39%
    03:00 +7°C° 0 mm 0 m/s 678 mmHg 39%
    04:00 +8°C° 0 mm 1 m/s 678 mmHg 40%
    05:00 +8°C° 0 mm 1 m/s 678 mmHg 40%
    06:00 +8°C° 0 mm 1 m/s 678 mmHg 41%
    07:00 +7°C° 0 mm 1 m/s 679 mmHg 41%
    08:00 +10°C° 0 mm 1 m/s 680 mmHg 37%
    09:00 +12°C° 0 mm 1 m/s 680 mmHg 32%
    10:00 +14°C° 0 mm 1 m/s 681 mmHg 27%
    11:00 +15°C° 0 mm 1 m/s 680 mmHg 26%
    12:00 +16°C° 0 mm 1 m/s 680 mmHg 25%
    13:00 +18°C° 0 mm 1 m/s 679 mmHg 25%
    14:00 +18°C° 0 mm 1 m/s 679 mmHg 25%
    15:00 +18°C° 0 mm 1 m/s 679 mmHg 25%
    16:00 +18°C° 0 mm 1 m/s 679 mmHg 25%
    17:00 +16°C° 0 mm 1 m/s 679 mmHg 28%
    18:00 +15°C° 0 mm 1 m/s 679 mmHg 32%
    19:00 +13°C° 0 mm 0 m/s 679 mmHg 35%
    20:00 +14°C° 0 mm 1 m/s 679 mmHg 37%
    21:00 +13°C° 0 mm 1 m/s 679 mmHg 38%
    22:00 +13°C° 0 mm 1 m/s 679 mmHg 40%
    23:00 +12°C° 0 mm 1 m/s 678 mmHg 41%

    29 Janvier, Mardi

    Heure Température Précipitation Vent Pression Humidité
    00:00 +12°C° 0 mm 1 m/s 678 mmHg 42%
    01:00 +12°C° 0 mm 1 m/s 677 mmHg 43%
    02:00 +12°C° 0 mm 2 m/s 677 mmHg 43%
    03:00 +10°C° 0 mm 2 m/s 677 mmHg 43%
    04:00 +10°C° 0 mm 2 m/s 676 mmHg 43%
    05:00 +10°C° 0 mm 2 m/s 676 mmHg 44%
    06:00 +10°C° 0 mm 2 m/s 677 mmHg 45%
    07:00 +11°C° 0 mm 1 m/s 677 mmHg 45%
    08:00 +13°C° 0 mm 2 m/s 677 mmHg 41%
    09:00 +15°C° 0 mm 2 m/s 677 mmHg 36%
    10:00 +16°C° 0 mm 2 m/s 677 mmHg 32%
    11:00 +18°C° 0 mm 2 m/s 677 mmHg 31%
    12:00 +19°C° 0 mm 2 m/s 676 mmHg 31%
    13:00 +20°C° 0 mm 2 m/s 676 mmHg 30%
    14:00 +20°C° 0 mm 2 m/s 675 mmHg 30%
    15:00 +20°C° 0 mm 2 m/s 675 mmHg 30%
    16:00 +21°C° 0 mm 1 m/s 675 mmHg 31%
    17:00 +20°C° 0 mm 1 m/s 675 mmHg 34%
    18:00 +19°C° 0 mm 1 m/s 675 mmHg 37%
    19:00 +19°C° 0 mm 1 m/s 675 mmHg 39%
    20:00 +17°C° 0.3 mm 2 m/s 675 mmHg 44%
    21:00 +16°C° 0.3 mm 2 m/s 674 mmHg 48%
    22:00 +16°C° 0.3 mm 2 m/s 674 mmHg 52%
    23:00 +15°C° 0.1 mm 2 m/s 674 mmHg 54%
    Voir plus